Location: Logan
(41.7360°N, 111.8340°W)
Time: 00:45:49
(UTC-06:00)

Daily predictions for brighter satellites

Satellite Brightness Start Highest point End
(mag) Time Altitude Azimuth Time Altitude Azimuth Time Altitude Azimuth
USA 215 4.1 00:19:35 39° W 00:19:35 39° W 00:24:01 10° WNW
Cosmos 2263 Rocket 3.6 00:18:30 10° NNW 00:21:38 33° NW 00:21:38 33° NW
Cosmos 2322 Rocket 3.6 00:26:54 33° NW 00:26:54 33° NW 00:31:25 10° N
Terra 4.5 00:41:24 14° WNW 00:41:24 14° WNW 00:42:27 10° NW
H-2A R/B 4.5 00:41:08 14° WNW 00:41:08 14° WNW 00:42:24 10° NW
Cosmos 2278 Rocket 3.9 01:02:34 10° N 01:05:46 28° NNE 01:05:46 28° NNE
Cosmos 2360 Rocket 4.1 01:40:33 23° NW 01:40:33 23° NW 01:44:02 10° N
ATLAS 3B R/B 3.7 01:41:57 42° ENE 01:41:57 42° ENE 01:46:50 10° NE
CZ-2C R/B 4.3 01:35:44 10° NNE 01:38:26 30° NNE 01:38:26 30° NNE
COSMOS 2455 4.2 01:58:18 34° NNE 01:58:18 34° NNE 02:01:35 10° NNE
Cosmos 2219 Rocket 3.8 02:03:17 31° N 02:03:17 31° N 02:06:13 10° NNE
SL-16 R/B 3.9 02:14:39 28° NE 02:14:39 28° NE 02:17:25 10° NE
Cosmos 2333 Rocket 3.6 02:15:46 35° N 02:15:46 35° N 02:19:06 10° NNE
Cosmos 2237 Rocket 3.6 02:19:43 34° N 02:19:43 34° N 02:22:56 10° NNE
USA 238 DEB 4.3 02:32:15 50° ENE 02:32:15 50° ENE 02:37:34 10° NE
USA 238 4.3 02:32:21 50° ENE 02:32:21 50° ENE 02:37:40 10° NE
BREEZE-M DEB (TANK) 4.4 02:43:46 57° ESE 02:43:46 57° ESE 02:47:43 10° ENE
CZ-4C R/B 3.5 02:46:31 35° ENE 02:46:31 35° ENE 02:50:07 10° NE
SL-16 R/B 4.0 03:05:49 19° ESE 03:09:09 31° ENE 03:14:30 10° N
ATLAS CENTAUR R/B 3.6 03:15:48 10° N 03:19:25 24° NE 03:20:00 23° ENE
Cosmos 1943 4.5 03:25:33 31° ESE 03:25:34 31° ESE 03:30:30 10° NE
CZ-2D R/B 3.7 03:21:48 10° NE 03:26:12 26° E 03:26:43 26° ESE
Cosmos 1553 Rocket 4.0 03:28:02 73° ENE 03:28:02 73° ENE 03:33:51 10° N
ATLAS 3B R/B 3.8 03:29:11 34° WNW 03:30:38 36° NW 03:37:22 10° NNE
Cosmos 1745 Rocket 4.1 03:25:13 10° N 03:31:36 70° E 03:32:03 67° ESE
Cosmos 2369 Rocket 3.3 03:31:06 10° N 03:36:23 41° ENE 03:41:03 13° SE
NPP 4.1 03:37:06 10° N 03:41:26 53° NNW 03:41:26 53° NNW
SL-08 R/B 4.4 03:36:32 10° N 03:42:13 77° NW 03:42:13 77° NW
Spot 4 Rocket 4.3 03:38:42 10° NNE 03:43:21 64° ENE 03:43:21 64° ENE
IRS-1D 4.3 03:39:10 10° NNE 03:44:11 46° E 03:44:24 46° ESE
Cosmos 1271 Rocket 4.5 03:49:06 31° NNE 03:49:06 31° NNE 03:51:19 10° N
Cosmos 1867 4.5 03:49:31 39° NW 03:49:31 39° NW 03:54:16 10° NNE
ADEOS 3.7 03:44:08 10° NNE 03:48:52 73° NE 03:48:52 73° NE
Cosmos 1707 Rocket 4.3 03:54:15 52° NE 03:54:15 52° NE 03:57:48 10° NNE
ARIANE 5 R/B 2.7 03:50:37 10° NNE 03:55:50 64° ESE 03:56:01 63° ESE
SL-16 R/B 3.6 03:56:32 27° NW 03:56:32 27° NW 04:01:06 10° N
Cosmos 1331 Rocket 4.3 03:51:31 10° NNW 03:56:46 64° ENE 03:57:49 52° ESE
Cosmos 2333 Rocket 4.5 03:57:47 11° NW 03:58:49 12° NW 04:00:58 10° NNW
Cosmos 2237 Rocket 4.4 04:01:32 12° NW 04:02:24 13° NW 04:04:47 10° NNW
Cosmos 1943 Rocket 4.0 03:57:54 10° N 04:02:51 30° NE 04:07:46 10° ESE
Resurs 1-4 Rocket 2.4 03:58:42 10° NNE 04:03:55 59° E 04:04:42 53° SE
ERS-2 3.5 04:08:06 10° N 04:10:23 35° N 04:10:23 35° N
SeaSat 1 3.8 04:07:36 10° ESE 04:12:10 39° NE 04:16:44 10° NNW
Cosmos 883 Rocket 4.3 04:14:34 56° S 04:16:01 89° ESE 04:22:11 10° N
Meteor 1-27 4.0 04:15:53 72° SW 04:16:24 79° W 04:22:00 10° N
Okean O Rocket 3.6 04:13:32 10° NE 04:17:12 25° E 04:19:41 16° SE
USA 234 3.2 04:11:31 10° NE 04:18:06 83° NW 04:19:56 51° WSW
Cosmos 158 Rocket 4.4 04:18:49 46° NW 04:18:49 46° NW 04:23:20 10° N
IRAS Rocket 4.4 04:17:25 10° N 04:22:52 52° WNW 04:23:18 50° W
EO 1 Del DPAF 3.4 04:26:17 71° ENE 04:26:17 71° ENE 04:30:07 10° N
Cosmos 2315 Rocket 4.0 04:24:15 36° S 04:26:58 78° E 04:33:15 10° N
UNKNOWN OBJECT B 3.0 04:23:43 10° NNE 04:27:12 61° E 04:27:12 61° E
CZ-2D R/B 4.2 04:23:49 10° NNE 04:28:07 50° E 04:29:17 39° SE
Cosmos 2251 Rocket 3.5 04:29:17 58° W 04:29:45 60° WNW 04:34:58 10° NNE
Cosmos 1110 Rocket 4.1 04:27:15 10° NNW 04:31:53 52° W 04:31:53 52° W
Cosmos 1869 4.3 04:31:15 34° SE 04:32:22 43° E 04:36:09 10° NNE
CZ-4C R/B 3.5 04:31:42 24° WNW 04:33:17 28° NW 04:38:29 10° NNE
ATLAS 5 CENTAUR R/B 2.2 04:33:05 44° SSE 04:34:15 56° ESE 04:39:19 10° NE
Cosmos 2292 Rocket 4.3 04:31:31 10° N 04:33:08 30° N 04:33:08 30° N
Iridium 2 3.7 04:32:04 10° N 04:35:32 73° N 04:35:32 73° N
NOSS 3-2 (A) 4.0 04:35:51 38° W 04:37:42 48° NW 04:44:12 10° NNE
Cosmos 1892 2.8 04:40:31 10° NNW 04:43:54 60° NW 04:43:54 60° NW
MOS 1-B 4.3 04:39:22 10° NNE 04:45:12 86° WNW 04:47:54 34° SSW
CZ-2C R/B 4.3 04:44:19 10° SSE 04:48:39 55° ENE 04:53:00 10° N
Abrixas rocket 4.2 04:50:10 20° NNW 04:51:22 25° N 04:54:13 10° ENE
Cosmos 2242 Rocket 3.8 04:51:33 48° WSW 04:52:05 51° W 04:56:34 10° N
Meteor 2-3 Rocket 4.2 04:46:50 10° NNW 04:52:13 41° W 04:53:16 38° WSW
SL-16 R/B 2.8 04:50:55 36° SW 04:52:34 43° W 04:58:27 10° NNW
Cosmos 724 4.3 04:51:26 39° SW 04:53:41 70° NW 04:59:43 10° NNE
NOSS 3-2 (C) 4.0 04:51:36 32° W 04:54:03 46° NW 05:00:32 10° NNE
Meteor 2-10 4.2 04:52:16 39° SW 04:54:11 60° WNW 04:59:34 10° N
Meteor 2-11 Rocket 4.3 04:52:04 29° SSW 04:55:20 75° W 05:01:26 10° N
CENTAUR R/B 2.9 04:52:48 23° S 04:56:34 58° ESE 05:03:12 10° NE
MTI 3.8 04:58:24 63° WNW 04:58:24 63° WNW 05:01:30 10° NNW
Cosmos 1726 4.3 04:59:34 15° NW 04:59:34 15° NW 05:00:49 10° NNW
ARGOS Delta rocket 3.6 04:53:55 10° NNE 04:58:21 87° E 05:00:30 30° S
ATLAS CENTAUR R/B 3.2 04:54:37 10° NW 04:56:06 19° WNW 04:56:06 19° WNW
Cosmos 1862 Rocket 3.4 05:00:16 34° SSW 05:02:07 82° W 05:06:33 10° N
MOZ.5/SAFIR/RUBIN 5/SL-8 3.7 05:01:00 10° SSE 05:05:38 90° WNW 05:10:17 10° NNW
CZ-2D R/B 2.7 05:01:30 10° N 05:06:22 39° WNW 05:08:03 30° WSW
COSMOS 2406 4.0 05:01:21 13° S 05:06:24 51° ESE 05:11:58 10° NE
PSLV R/B 3.2 05:08:14 55° WSW 05:08:55 81° S 05:12:19 10° E
Cosmos 1943 3.9 05:07:23 28° WSW 05:09:29 38° WNW 05:14:45 10° N
PSLV R/B 3.6 05:11:29 10° N 05:15:14 73° WNW 05:17:03 29° SSW
Cosmos 1455 2.8 05:15:25 34° WSW 05:16:07 37° WNW 05:19:46 10° N
Nadezhda 1 Rocket 4.4 05:11:06 10° S 05:17:16 67° E 05:23:34 10° NNE
CZ-4B DEB 4.3 05:14:30 10° NNE 05:20:01 79° ESE 05:25:28 10° S
Cosmos 2369 Rocket 2.9 05:15:28 10° NW 05:20:12 29° WSW 05:22:33 21° SW
Cosmos 389 Rocket 2.4 05:19:52 33° SW 05:21:11 60° WNW 05:24:39 10° N
Cosmos 1302 Rocket 4.5 05:18:09 10° NW 05:22:55 36° WSW 05:27:39 10° SSW
CZ-4B R/B 3.1 05:17:58 10° NNE 05:23:19 90° WNW 05:28:37 10° SSW
Cosmos 1733 Rocket 3.7 05:24:37 10° NNW 05:28:36 34° W 05:30:57 20° SW
ASTRO F (AKARI) 4.4 05:28:29 10° SSE 05:32:08 85° WSW 05:35:37 10° NNW
ARIANE 5 R/B 4.2 05:31:01 10° NNW 05:34:24 18° WNW 05:36:21 15° W
Cosmos 1184 Rocket 3.8 05:32:17 10° NNW 05:35:17 28° W 05:36:16 24° SW
Cosmos 1782 Rocket 3.8 05:31:31 10° N 05:35:52 70° E 05:40:10 10° SSE
Cosmos 2074 Rocket 4.0 05:34:26 10° NNW 05:40:32 59° W 05:46:37 10° S
Cosmos 2154 Rocket 4.4 05:35:42 10° N 05:42:02 72° E 05:48:21 10° SSE
Resurs 1-4 Rocket 3.6 05:39:42 10° NNW 05:43:17 19° WNW 05:45:46 14° W
Cosmos 2184 Rocket 4.1 05:37:18 10° NNW 05:43:33 59° W 05:49:45 10° S
COSMOS 2487 4.1 05:40:25 10° S 05:43:43 35° ESE 05:47:02 10° NE
Cosmos 1943 Rocket 2.5 05:41:25 10° NW 05:46:43 42° WSW 05:51:58 10° S
SeaSat 1 3.2 05:45:31 10° SSW 05:49:44 28° WSW 05:54:00 10° NW
USA 129 2.1 05:50:30 23° NNW 05:50:30 23° NNW 05:51:11 10° NNW
Geosat 4.0 05:45:36 10° NNE 05:50:40 88° ESE 05:55:42 10° SSW
Cosmos 1408 2.9 05:48:29 10° NNW 05:52:04 44° W 05:55:38 10° SSW
Okean O Rocket 2.5 05:49:38 10° N 05:53:35 31° WNW 05:57:09 12° SW
Cosmos 1825 2.6 05:50:19 10° NNW 05:53:55 41° W 05:57:29 10° SSW
Cosmos 2221 Rocket 3.6 05:51:37 10° SSW 05:56:01 61° W 06:00:24 10° N
Cosmos 1908 Rocket 4.0 05:52:24 10° NNW 05:56:29 38° W 06:00:30 10° SSW
Cosmos 1862 3.9 05:53:10 10° NNW 05:56:50 36° W 06:00:29 10° SSW
Okean-O 2.6 05:52:44 10° NNE 05:57:13 87° W 06:01:38 10° SSW
ADEOS II 2.2 05:54:33 10° NNE 05:59:51 87° ESE 06:05:07 10° SSW
USA 234 4.4 05:54:51 10° NE 06:00:34 33° NNW 06:06:16 10° W
Cosmos 2341 Rocket 4.2 05:55:31 10° N 06:01:51 80° E 06:08:10 10° S
CZ-4B R/B 3.7 06:02:16 10° NNW 06:05:24 27° WNW 06:08:35 10° SW
Thor Agena Rocket 3.9 06:00:57 10° S 06:05:46 41° W 06:10:42 10° NNW
Cosmos 1174 4.5 06:01:26 10° SW 06:06:54 58° WNW 06:11:14 10° NNE
Cosmos 1190 Rocket 4.0 06:03:48 10° SSW 06:08:59 77° WNW 06:14:12 10° NNE
SL-27 R/B 3.9 06:07:47 10° WSW 06:10:45 24° WNW 06:13:45 10° N
NAVSTAR 52 R/B(PAM-D 3.8 06:10:34 13° WSW 06:11:48 28° S 06:13:18 10° ESE
Cosmos 1933 4.5 06:09:12 10° SW 06:12:39 26° WNW 06:16:08 10° NNW
Cosmos 2285 Rocket 4.3 06:07:20 10° NNW 06:13:22 44° WSW 06:19:21 10° S
Feng Yun 1-1 Rocket 4.2 06:07:59 10° N 06:13:23 75° WNW 06:18:46 10° SSW
Cosmos 1703 Rocket 4.3 06:10:21 10° SW 06:14:26 35° WNW 06:18:34 10° N
Meteor 1-26 Rocket 4.4 06:11:36 10° SSW 06:17:22 64° WNW 06:23:14 10° N
ATLAS 5 CENTAUR R/B 3.3 06:15:15 10° W 06:19:19 25° NW 06:23:39 10° NNE
MOS 1 Rocket 3.6 06:15:24 10° NNE 06:19:42 66° E 06:23:57 10° S
Cosmos 1656 Rocket 3.9 06:14:47 10° NW 06:19:57 46° WSW 06:25:05 10° S
Centaur D-1A AC-31 3.3 06:20:52 10° WSW 06:26:06 18° SSW 06:28:59 10° SSE
